Satellite: CO-57
Catalog number: 27848
Epoch time:      09239.53668541
Element set:     603
Inclination:      098.7175 deg
RA of node:       246.7610 deg
Eccentricity:    0.0009243
Arg of perigee:   306.7848 deg
Mean anomaly:     053.2477 deg
Mean motion:   14.20453160 rev/day
Decay rate:        3.1e-07 rev/day^2
Epoch rev:           31935
Checksum:              318

Satellite: AO-51
Catalog number: 28375
Epoch time:      09238.52937626
Element set:    0472
Inclination:      098.0536 deg
RA of node:       244.0372 deg
Eccentricity:    0.0083296
Arg of perigee:   272.3239 deg
Mean anomaly:     086.8421 deg
Mean motion:   14.40650227 rev/day
Decay rate:       -1.0e-08 rev/day^2
Epoch rev:           27108
Checksum:              307

Satellite: CO-56
Catalog number: 28941
Epoch time:      09239.68927910
Element set:     386
Inclination:      098.1346 deg
RA of node:       068.1196 deg
Eccentricity:    0.0063046
Arg of perigee:   219.1428 deg
Mean anomaly:     140.5340 deg
Mean motion:   15.93776941 rev/day
Decay rate:     8.9558e-04 rev/day^2
Epoch rev:           19860
Checksum:              361

Satellite: GENESAT1
Catalog number: 29655
Epoch time:      09239.90845948
Element set:     792
Inclination:      040.0227 deg
RA of node:       093.4594 deg
Eccentricity:    0.0004595
Arg of perigee:   309.7536 deg
Mean anomaly:     050.2882 deg
Mean motion:   15.66966792 rev/day
Decay rate:      8.419e-05 rev/day^2
Epoch rev:           15372
Checksum:              351

Satellite: CP3
Catalog number: 31129
Epoch time:      09239.14389228
Element set:     154
Inclination:      097.9840 deg
RA of node:       288.8036 deg
Eccentricity:    0.0103584
Arg of perigee:   065.5151 deg
Mean anomaly:     295.6801 deg
Mean motion:   14.52157399 rev/day
Decay rate:        6.2e-07 rev/day^2
Epoch rev:           12518
Checksum:              317

Satellite: CO-65
Catalog number: 32785
Epoch time:      09239.24489791
Element set:     456
Inclination:      097.9390 deg
RA of node:       302.6037 deg
Eccentricity:    0.0015290
Arg of perigee:   156.5319 deg
Mean anomaly:     203.6592 deg
Mean motion:   14.81511318 rev/day
Decay rate:        3.3e-07 rev/day^2
Epoch rev:            7196
Checksum:              323

Satellite: KKS-1
Catalog number: 33493
Epoch time:      09239.79788585
Element set:     698
Inclination:      098.0622 deg
RA of node:       352.3406 deg
Eccentricity:    0.0020460
Arg of perigee:   014.0922 deg
Mean anomaly:     346.0855 deg
Mean motion:   14.80718348 rev/day
Decay rate:       1.75e-06 rev/day^2
Epoch rev:            3206
Checksum:              315

Satellite: SOHLA-1
Catalog number: 33496
Epoch time:      09239.68113880
Element set:     663
Inclination:      098.0422 deg
RA of node:       347.8913 deg
Eccentricity:    0.0007881
Arg of perigee:   059.8643 deg
Mean anomaly:     300.3346 deg
Mean motion:   14.69444044 rev/day
Decay rate:        1.8e-07 rev/day^2
Epoch rev:            3177
Checksum:              315

/EX
SB KEPS @ AMSAT  $ORB09239.W
Orbital Elements  09239.WEATHER

HR AMSAT ORBITAL ELEMENTS FOR WEATHER SATELLITES
FROM WA5QGD FORT WORTH,TX August 27, 2009
Send Subscribe/unsubscribe to KEPS at 
http://www.amsat.org/mailman/listinfo/keps
BID: ORB09239.W
TO ALL RADIO AMATEURS BT

Satellite: NOAA-10
Catalog number: 16969
Epoch time:      09238.60533939
Element set:    0737
Inclination:      098.6883 deg
RA of node:       264.8610 deg
Eccentricity:    0.0012418
Arg of perigee:   355.9497 deg
Mean anomaly:     004.1574 deg
Mean motion:   14.27392975 rev/day
Decay rate:        2.1e-07 rev/day^2
Epoch rev:           19355
Checksum:              343

Satellite: NOAA-11
Catalog number: 19531
Epoch time:      09238.78187791
Element set:    0756
Inclination:      098.7828 deg
RA of node:       327.6423 deg
Eccentricity:    0.0010807
Arg of perigee:   267.9950 deg
Mean anomaly:     091.9975 deg
Mean motion:   14.14902506 rev/day
Decay rate:       1.01e-06 rev/day^2
Epoch rev:           07950
Checksum:              337

Satellite: NOAA-12
Catalog number: 21263
Epoch time:      09238.92524832
Element set:    0248
Inclination:      098.7740 deg
RA of node:       247.0230 deg
Eccentricity:    0.0011666
Arg of perigee:   305.0568 deg
Mean anomaly:     054.9517 deg
Mean motion:   14.25590482 rev/day
Decay rate:        1.9e-07 rev/day^2
Epoch rev:           95047
Checksum:              305

Satellite: MET-3/5
Catalog number: 21655
Epoch time:      09238.95243144
Element set:    0768
Inclination:      082.5582 deg
RA of node:       156.5166 deg
Eccentricity:    0.0014286
Arg of perigee:   009.5182 deg
Mean anomaly:     350.6209 deg
Mean motion:   13.17020690 rev/day
Decay rate:        5.1e-07 rev/day^2
Epoch rev:           86694
Checksum:              312

Satellite: MET-2/21
Catalog number: 22782
Epoch time:      09238.75765694
Element set:    0549
Inclination:      082.5482 deg
RA of node:       126.0426 deg
Eccentricity:    0.0023065
Arg of perigee:   145.4884 deg
Mean anomaly:     214.7786 deg
Mean motion:   13.83639294 rev/day
Decay rate:        2.2e-07 rev/day^2
Epoch rev:           80736
Checksum:              337

